| time (UTC) | temp C | wind direction | speed KPH | gust KPH | rain 1hr cm | rain 24hr cm | rain mn cm | humidity % | barometer mb |
| 20260504221657 | 24 | 252 | 3.2 | 17.7 | 0.00 | 0.00 | 0.00 | 46 | 1010.5 |
| 20260504221156 | 24 | 229 | 4.8 | 11.3 | 0.00 | 0.00 | 0.00 | 44 | 1010.5 |
| 20260504220655 | 24 | 230 | 6.4 | 12.9 | 0.00 | 0.00 | 0.00 | 43 | 1010.5 |
| 20260504220154 | 24 | 230 | 6.4 | 12.9 | 0.00 | 0.00 | 0.00 | 43 | 1010.5 |
| 20260504215551 | 25 | 208 | 4.8 | 14.5 | 0.00 | 0.00 | 0.00 | 43 | 1010.5 |
| 20260504215049 | 25 | 206 | 4.8 | 16.1 | 0.00 | 0.00 | 0.00 | 43 | 1010.5 |
| 20260504214547 | 25 | 231 | 3.2 | 16.1 | 0.00 | 0.00 | 0.00 | 44 | 1010.5 |
| 20260504214046 | 25 | 239 | 4.8 | 17.7 | 0.00 | 0.00 | 0.00 | 43 | 1010.5 |
| 20260504213544 | 25 | 230 | 6.4 | 27.4 | 0.00 | 0.00 | 0.00 | 43 | 1010.5 |
| 20260504213044 | 25 | 221 | 3.2 | 27.4 | 0.00 | 0.00 | 0.00 | 45 | 1010.5 |
| 20260504212542 | 25 | 235 | 8.0 | 27.4 | 0.00 | 0.00 | 0.00 | 42 | 1010.5 |
| 20260504212040 | 25 | 228 | 6.4 | 27.4 | 0.00 | 0.00 | 0.00 | 45 | 1010.5 |
| 20260504211540 | 25 | 163 | 3.2 | 16.1 | 0.00 | 0.00 | 0.00 | 43 | 1010.5 |
| 20260504211007 | 25 | 241 | 4.8 | 16.1 | 0.00 | 0.00 | 0.00 | 43 | 1010.5 |
| 20260504210506 | 25 | 228 | 6.4 | 17.7 | 0.00 | 0.00 | 0.00 | 45 | 1010.8 |
| 20260504205933 | 25 | 228 | 8.0 | 17.7 | 0.00 | 0.00 | 0.00 | 45 | 1010.8 |
| 20260504205258 | 25 | 245 | 3.2 | 8.0 | 0.00 | 0.00 | 0.00 | 45 | 1010.8 |
| 20260504204756 | 25 | 104 | 3.2 | 14.5 | 0.00 | 0.00 | 0.00 | 46 | 1010.8 |
| 20260504204255 | 25 | 114 | 3.2 | 16.1 | 0.00 | 0.00 | 0.00 | 46 | 1010.8 |
| 20260504203754 | 25 | 92 | 3.2 | 16.1 | 0.00 | 0.00 | 0.00 | 46 | 1010.8 |
| 20260504203253 | 25 | 244 | 6.4 | 11.3 | 0.00 | 0.00 | 0.00 | 44 | 1010.8 |
| 20260504202751 | 25 | 123 | 3.2 | 11.3 | 0.00 | 0.00 | 0.00 | 49 | 1011.2 |
| 20260504202250 | 25 | 248 | 4.8 | 12.9 | 0.00 | 0.00 | 0.00 | 46 | 1011.2 |
| 20260504201749 | 25 | 247 | 8.0 | 12.9 | 0.00 | 0.00 | 0.00 | 46 | 1011.2 |
| 20260504201246 | 25 | 196 | 3.2 | 11.3 | 0.00 | 0.00 | 0.00 | 48 | 1011.2 |
| 20260504200746 | 25 | 105 | 4.8 | 11.3 | 0.00 | 0.00 | 0.00 | 48 | 1011.2 |
| 20260504200244 | 25 | 115 | 3.2 | 12.9 | 0.00 | 0.00 | 0.00 | 48 | 1011.5 |
| 20260504195743 | 25 | 200 | 1.6 | 12.9 | 0.00 | 0.00 | 0.00 | 50 | 1011.5 |
| 20260504195242 | 25 | 226 | 3.2 | 11.3 | 0.00 | 0.00 | 0.00 | 49 | 1011.5 |
| 20260504194740 | 25 | 139 | 3.2 | 12.9 | 0.00 | 0.00 | 0.00 | 48 | 1011.9 |
| 20260504194239 | 25 | 233 | 8.0 | 12.9 | 0.00 | 0.00 | 0.00 | 46 | 1011.9 |
| 20260504193738 | 25 | 150 | 3.2 | 14.5 | 0.00 | 0.00 | 0.00 | 49 | 1011.9 |
| 20260504193236 | 25 | 115 | 4.8 | 14.5 | 0.00 | 0.00 | 0.00 | 49 | 1011.9 |
| 20260504192735 | 25 | 183 | 3.2 | 9.7 | 0.00 | 0.00 | 0.00 | 50 | 1011.9 |
| 20260504192234 | 25 | 257 | 3.2 | 11.3 | 0.00 | 0.00 | 0.00 | 49 | 1012.2 |
| 20260504191733 | 25 | 232 | 4.8 | 11.3 | 0.00 | 0.00 | 0.00 | 49 | 1012.2 |
| 20260504191231 | 24 | 221 | 3.2 | 11.3 | 0.00 | 0.00 | 0.00 | 49 | 1012.2 |
| 20260504190656 | 24 | 240 | 4.8 | 11.3 | 0.00 | 0.00 | 0.00 | 49 | 1012.2 |
| 20260504190154 | 24 | 224 | 3.2 | 12.9 | 0.00 | 0.00 | 0.00 | 48 | 1012.5 |
| 20260504185653 | 24 | 219 | 4.8 | 12.9 | 0.00 | 0.00 | 0.00 | 49 | 1012.5 |
| 20260504185152 | 24 | 220 | 6.4 | 12.9 | 0.00 | 0.00 | 0.00 | 50 | 1012.5 |
| 20260504184649 | 24 | 270 | 3.2 | 14.5 | 0.00 | 0.00 | 0.00 | 49 | 1012.5 |
| 20260504184149 | 25 | 88 | 6.4 | 14.5 | 0.00 | 0.00 | 0.00 | 47 | 1012.5 |
| 20260504183648 | 25 | 336 | 3.2 | 14.5 | 0.00 | 0.00 | 0.00 | 48 | 1012.5 |
| 20260504183147 | 25 | 236 | 8.0 | 14.5 | 0.00 | 0.00 | 0.00 | 48 | 1012.5 |
| 20260504182646 | 25 | 242 | 9.7 | 14.5 | 0.00 | 0.00 | 0.00 | 47 | 1012.5 |
| 20260504182144 | 25 | 230 | 4.8 | 11.3 | 0.00 | 0.00 | 0.00 | 49 | 1012.9 |
| 20260504181610 | 25 | 90 | 6.4 | 12.9 | 0.00 | 0.00 | 0.00 | 47 | 1012.9 |
| 20260504181109 | 24 | 221 | 4.8 | 12.9 | 0.00 | 0.00 | 0.00 | 49 | 1012.9 |
| 20260504180608 | 24 | 83 | 4.8 | 12.9 | 0.00 | 0.00 | 0.00 | 47 | 1012.9 |
| 20260504180107 | 24 | 82 | 3.2 | 12.9 | 0.00 | 0.00 | 0.00 | 48 | 1013.2 |
| 20260504175606 | 24 | 290 | 1.6 | 12.9 | 0.00 | 0.00 | 0.00 | 50 | 1013.2 |
| 20260504175105 | 24 | 189 | 3.2 | 12.9 | 0.00 | 0.00 | 0.00 | 51 | 1013.2 |
| 20260504174603 | 24 | 229 | 3.2 | 8.0 | 0.00 | 0.00 | 0.00 | 50 | 1013.2 |
| 20260504174102 | 23 | 273 | 1.6 | 14.5 | 0.00 | 0.00 | 0.00 | 51 | 1013.2 |
| 20260504173559 | 23 | 178 | 3.2 | 14.5 | 0.00 | 0.00 | 0.00 | 49 | 1013.5 |
| 20260504173058 | 23 | 253 | 3.2 | 14.5 | 0.00 | 0.00 | 0.00 | 47 | 1013.5 |
| 20260504172557 | 23 | 254 | 6.4 | 14.5 | 0.00 | 0.00 | 0.00 | 52 | 1013.5 |
| 20260504172056 | 23 | 165 | 3.2 | 8.0 | 0.00 | 0.00 | 0.00 | 50 | 1013.9 |
| 20260504171554 | 23 | 213 | 1.6 | 8.0 | 0.00 | 0.00 | 0.00 | 50 | 1013.9 |
| 20260504170951 | 22 | 287 | 3.2 | 11.3 | 0.00 | 0.00 | 0.00 | 51 | 1013.9 |
| 20260504170450 | 22 | 79 | 3.2 | 11.3 | 0.00 | 0.00 | 0.00 | 51 | 1013.9 |
| 20260504160405 | 20 | 185 | 1.6 | 8.0 | 0.00 | 0.00 | 0.00 | 55 | 1014.9 |
| 20260504150716 | 18 | 200 | 3.2 | 8.0 | 0.00 | 0.00 | 0.00 | 59 | 1015.9 |
| 20260504150214 | 18 | 237 | 1.6 | 8.0 | 0.00 | 0.00 | 0.00 | 62 | 1015.9 |
| 20260504141026 | 15 | 181 | 0.0 | 4.8 | 0.00 | 0.00 | 0.00 | 72 | 1016.6 |
| 20260504140453 | 15 | 276 | 1.6 | 4.8 | 0.00 | 0.00 | 0.00 | 73 | 1016.6 |
| 20260504130338 | 11 | 251 | 1.6 | 3.2 | 0.00 | 0.00 | 0.00 | 83 | 1016.6 |
| 20260504120250 | 6 | 117 | 0.0 | 0.0 | 0.00 | 0.00 | 0.00 | 95 | 1016.3 |
| 20260504110235 | 5 | 117 | 0.0 | 0.0 | 0.00 | 0.00 | 0.00 | 95 | 1015.9 |
| 20260504100147 | 5 | 117 | 0.0 | 0.0 | 0.00 | 0.00 | 0.00 | 94 | 1015.9 |
| 20260504081914 | 5 | 115 | 0.0 | 1.6 | 0.00 | 0.00 | 0.00 | 93 | 1015.9 |
| 20260504081413 | 5 | 115 | 0.0 | 1.6 | 0.00 | 0.00 | 0.00 | 93 | 1015.9 |
| 20260504080910 | 5 | 115 | 0.0 | 1.6 | 0.00 | 0.00 | 0.00 | 93 | 1015.9 |
| 20260504080409 | 5 | 114 | 0.0 | 0.0 | 0.00 | 0.00 | 0.00 | 92 | 1015.9 |
| 20260504070354 | 6 | 115 | 0.0 | 0.0 | 0.00 | 0.00 | 0.00 | 92 | 1016.3 |
| 20260504060132 | 7 | 114 | 0.0 | 1.6 | 0.00 | 0.00 | 0.00 | 90 | 1016.3 |
| 20260504050517 | 7 | 194 | 0.0 | 1.6 | 0.00 | 0.00 | 0.00 | 90 | 1016.3 |
| 20260504045944 | 7 | 194 | 0.0 | 0.0 | 0.00 | 0.00 | 0.00 | 90 | 1016.3 |
| 20260504045442 | 7 | 194 | 0.0 | 0.0 | 0.00 | 0.00 | 0.00 | 89 | 1016.3 |
| 20260504044941 | 7 | 194 | 0.0 | 0.0 | 0.00 | 0.00 | 0.00 | 89 | 1016.3 |
| 20260504044440 | 7 | 194 | 0.0 | 0.0 | 0.00 | 0.00 | 0.00 | 89 | 1016.3 |
| 20260504043938 | 7 | 194 | 0.0 | 0.0 | 0.00 | 0.00 | 0.00 | 89 | 1016.3 |
| 20260504043436 | 7 | 194 | 0.0 | 0.0 | 0.00 | 0.00 | 0.00 | 88 | 1016.3 |
| 20260504042932 | 7 | 194 | 0.0 | 0.0 | 0.00 | 0.00 | 0.00 | 88 | 1016.3 |
| 20260504042432 | 7 | 194 | 0.0 | 0.0 | 0.00 | 0.00 | 0.00 | 87 | 1016.3 |
| 20260504041931 | 7 | 194 | 0.0 | 0.0 | 0.00 | 0.00 | 0.00 | 86 | 1016.3 |
| 20260504041325 | 7 | 194 | 0.0 | 0.0 | 0.00 | 0.00 | 0.00 | 86 | 1016.3 |
| 20260504040824 | 7 | 194 | 0.0 | 0.0 | 0.00 | 0.00 | 0.00 | 86 | 1016.3 |
| 20260504040322 | 7 | 194 | 0.0 | 0.0 | 0.00 | 0.00 | 0.00 | 85 | 1016.3 |
| 20260504035821 | 7 | 194 | 0.0 | 0.0 | 0.00 | 0.00 | 0.00 | 86 | 1016.3 |
| 20260504035317 | 7 | 195 | 0.0 | 0.0 | 0.00 | 0.00 | 0.00 | 86 | 1016.3 |
| 20260504034816 | 7 | 194 | 0.0 | 0.0 | 0.00 | 0.00 | 0.00 | 86 | 1016.3 |
| 20260504034315 | 7 | 194 | 0.0 | 0.0 | 0.00 | 0.00 | 0.00 | 86 | 1016.3 |
| 20260504033813 | 8 | 194 | 0.0 | 0.0 | 0.00 | 0.00 | 0.00 | 86 | 1016.3 |
| 20260504033240 | 8 | 195 | 0.0 | 0.0 | 0.00 | 0.00 | 0.00 | 86 | 1016.3 |
| 20260504032706 | 8 | 194 | 0.0 | 0.0 | 0.00 | 0.00 | 0.00 | 86 | 1015.9 |
| 20260504032205 | 8 | 194 | 0.0 | 0.0 | 0.00 | 0.00 | 0.00 | 85 | 1016.3 |
| 20260504031704 | 8 | 194 | 0.0 | 0.0 | 0.00 | 0.00 | 0.00 | 85 | 1015.9 |
| 20260504031131 | 8 | 194 | 0.0 | 0.0 | 0.00 | 0.00 | 0.00 | 84 | 1015.9 |
| 20260504030528 | 8 | 194 | 0.0 | 0.0 | 0.00 | 0.00 | 0.00 | 84 | 1015.9 |
| 20260504030025 | 8 | 194 | 0.0 | 0.0 | 0.00 | 0.00 | 0.00 | 84 | 1015.9 |
| 20260504025350 | 8 | 194 | 0.0 | 0.0 | 0.00 | 0.00 | 0.00 | 84 | 1015.9 |
| 20260504024817 | 8 | 194 | 0.0 | 0.0 | 0.00 | 0.00 | 0.00 | 83 | 1015.9 |
| 20260504024317 | 9 | 194 | 0.0 | 0.0 | 0.00 | 0.00 | 0.00 | 84 | 1015.6 |
| 20260504023816 | 9 | 194 | 0.0 | 0.0 | 0.00 | 0.03 | 0.00 | 84 | 1015.6 |
| 20260504023315 | 9 | 194 | 0.0 | 0.0 | 0.00 | 0.03 | 0.00 | 84 | 1015.6 |
| 20260504022814 | 9 | 194 | 0.0 | 0.0 | 0.00 | 0.03 | 0.00 | 84 | 1015.6 |
| 20260504022313 | 9 | 194 | 0.0 | 0.0 | 0.00 | 0.03 | 0.00 | 84 | 1015.6 |
| 20260504021812 | 9 | 194 | 0.0 | 0.0 | 0.00 | 0.03 | 0.00 | 84 | 1015.6 |
| 20260504021309 | 9 | 194 | 0.0 | 0.0 | 0.00 | 0.03 | 0.00 | 84 | 1015.2 |
| 20260504020808 | 10 | 194 | 0.0 | 0.0 | 0.00 | 0.03 | 0.00 | 83 | 1015.2 |
| 20260504020307 | 10 | 194 | 0.0 | 0.0 | 0.00 | 0.03 | 0.00 | 83 | 1015.2 |
| 20260504015806 | 10 | 194 | 0.0 | 0.0 | 0.00 | 0.03 | 0.00 | 83 | 1015.2 |
| 20260504015304 | 10 | 194 | 0.0 | 0.0 | 0.00 | 0.05 | 0.00 | 83 | 1015.2 |
| 20260504014803 | 10 | 194 | 0.0 | 0.0 | 0.00 | 0.08 | 0.00 | 83 | 1015.2 |
| 20260504014301 | 10 | 194 | 0.0 | 0.0 | 0.00 | 0.10 | 0.00 | 82 | 1015.2 |
| 20260504013800 | 10 | 194 | 0.0 | 0.0 | 0.00 | 0.13 | 0.00 | 82 | 1015.2 |
| 20260504013259 | 10 | 194 | 0.0 | 0.0 | 0.00 | 0.13 | 0.00 | 82 | 1015.2 |
| 20260504012758 | 10 | 194 | 0.0 | 0.0 | 0.00 | 0.13 | 0.00 | 82 | 1015.2 |
| 20260504012257 | 11 | 194 | 0.0 | 0.0 | 0.00 | 0.13 | 0.00 | 82 | 1015.2 |
| 20260504011756 | 11 | 194 | 0.0 | 0.0 | 0.00 | 0.13 | 0.00 | 81 | 1015.2 |
| 20260504011254 | 11 | 194 | 0.0 | 0.0 | 0.00 | 0.13 | 0.00 | 81 | 1015.2 |
| 20260504010753 | 11 | 194 | 0.0 | 0.0 | 0.00 | 0.13 | 0.00 | 80 | 1015.2 |
| 20260504010252 | 11 | 194 | 0.0 | 0.0 | 0.00 | 0.13 | 0.00 | 79 | 1015.2 |
| 20260504005751 | 12 | 194 | 0.0 | 0.0 | 0.00 | 0.13 | 0.00 | 78 | 1015.2 |
| 20260504005218 | 12 | 194 | 0.0 | 1.6 | 0.00 | 0.13 | 0.00 | 78 | 1015.2 |
| 20260504004717 | 12 | 194 | 0.0 | 1.6 | 0.00 | 0.13 | 0.00 | 77 | 1015.2 |
| 20260504004215 | 13 | 194 | 0.0 | 1.6 | 0.00 | 0.13 | 0.00 | 76 | 1014.9 |
| 20260504003714 | 13 | 194 | 0.0 | 1.6 | 0.00 | 0.13 | 0.00 | 75 | 1014.9 |
| 20260504003213 | 13 | 201 | 1.6 | 1.6 | 0.00 | 0.13 | 0.00 | 74 | 1014.9 |
| 20260504002711 | 13 | 207 | 0.0 | 0.0 | 0.00 | 0.13 | 0.00 | 72 | 1014.9 |
| 20260504002139 | 14 | 209 | 0.0 | 1.6 | 0.00 | 0.13 | 0.00 | 70 | 1014.9 |
| 20260504001637 | 15 | 208 | 0.0 | 1.6 | 0.00 | 0.13 | 0.00 | 69 | 1014.9 |
| 20260504001033 | 15 | 208 | 0.0 | 1.6 | 0.00 | 0.13 | 0.00 | 67 | 1014.9 |
| 20260504000532 | 15 | 208 | 0.0 | 1.6 | 0.00 | 0.13 | 0.00 | 64 | 1014.9 |
| 20260504000031 | 16 | 208 | 0.0 | 1.6 | 0.00 | 0.13 | 0.00 | 62 | 1014.9 |
| 20260503235530 | 16 | 208 | 0.0 | 1.6 | 0.00 | 0.13 | 0.00 | 58 | 1014.9 |
| 20260503234958 | 16 | 208 | 0.0 | 1.6 | 0.00 | 0.13 | 0.00 | 57 | 1014.9 |
| 20260503234354 | 16 | 209 | 0.0 | 1.6 | 0.00 | 0.13 | 0.00 | 55 | 1014.9 |
| 20260503233853 | 17 | 208 | 0.0 | 1.6 | 0.00 | 0.13 | 0.00 | 54 | 1014.9 |
| 20260503233352 | 17 | 208 | 1.6 | 1.6 | 0.00 | 0.13 | 0.00 | 53 | 1014.9 |
| 20260503232849 | 17 | 233 | 0.0 | 8.0 | 0.00 | 0.13 | 0.00 | 52 | 1015.2 |
| 20260503232349 | 17 | 182 | 1.6 | 8.0 | 0.00 | 0.13 | 0.00 | 50 | 1015.2 |
| 20260503231815 | 17 | 212 | 0.0 | 9.7 | 0.00 | 0.13 | 0.00 | 50 | 1015.2 |
| 20260503231314 | 18 | 116 | 3.2 | 9.7 | 0.00 | 0.13 | 0.00 | 47 | 1015.2 |
| 20260503230742 | 18 | 142 | 1.6 | 4.8 | 0.00 | 0.13 | 0.00 | 47 | 1015.2 |
| 20260503230240 | 18 | 255 | 3.2 | 4.8 | 0.00 | 0.13 | 0.00 | 46 | 1015.2 |
| 20260503225739 | 18 | 199 | 1.6 | 9.7 | 0.00 | 0.13 | 0.00 | 46 | 1015.2 |
| 20260503225237 | 18 | 182 | 1.6 | 9.7 | 0.00 | 0.13 | 0.00 | 45 | 1015.2 |
| 20260503224737 | 18 | 282 | 1.6 | 9.7 | 0.00 | 0.13 | 0.00 | 44 | 1015.2 |
| 20260503224236 | 18 | 241 | 4.8 | 9.7 | 0.00 | 0.13 | 0.00 | 44 | 1015.2 |
| 20260503223704 | 18 | 227 | 3.2 | 11.3 | 0.00 | 0.13 | 0.00 | 44 | 1015.6 |
| 20260503223202 | 18 | 205 | 1.6 | 12.9 | 0.00 | 0.13 | 0.00 | 45 | 1015.6 |
| 20260503222701 | 18 | 249 | 1.6 | 12.9 | 0.00 | 0.13 | 0.00 | 44 | 1015.6 |
| 20260503222200 | 18 | 233 | 4.8 | 9.7 | 0.00 | 0.13 | 0.00 | 44 | 1015.6 |